• In Hungary
  • List of Countries
  • For 7 days
  • Water Temperature
  • Satellite Maps
  • Weather Map
  • News
  • Weather Widgets
  • user-avatar
    Login

    Hourly Weather Sanem

    Today, 18 October, Wednesday

    Time Temperature Precipitation Wind Pressure Humidity
    00:00 +12°C° 0 mm 2 mps 732 mmHg 86%
    01:00 +12°C° 0 mm 2 mps 732 mmHg 85%
    02:00 +10°C° 0 mm 2 mps 732 mmHg 85%
    03:00 +10°C° 0 mm 2 mps 731 mmHg 84%
    04:00 +9°C° 0 mm 2 mps 731 mmHg 85%
    05:00 +9°C° 0 mm 2 mps 731 mmHg 86%
    06:00 +9°C° 0 mm 1 mps 731 mmHg 85%
    07:00 +10°C° 0 mm 2 mps 731 mmHg 81%
    08:00 +12°C° 0 mm 2 mps 731 mmHg 77%
    09:00 +14°C° 0 mm 2 mps 731 mmHg 72%
    10:00 +15°C° 0 mm 2 mps 731 mmHg 70%
    11:00 +17°C° 0 mm 2 mps 731 mmHg 68%
    12:00 +18°C° 0 mm 3 mps 731 mmHg 65%
    13:00 +18°C° 0 mm 2 mps 731 mmHg 68%
    14:00 +18°C° 0 mm 2 mps 731 mmHg 70%
    15:00 +18°C° 0 mm 2 mps 730 mmHg 72%
    16:00 +18°C° 0 mm 1 mps 730 mmHg 77%
    17:00 +15°C° 0 mm 1 mps 730 mmHg 83%
    18:00 +13°C° 0 mm 1 mps 730 mmHg 88%
    19:00 +13°C° 0 mm 1 mps 730 mmHg 89%
    20:00 +13°C° 0 mm 1 mps 730 mmHg 90%
    21:00 +12°C° 0 mm 1 mps 730 mmHg 91%
    22:00 +12°C° 0 mm 1 mps 730 mmHg 91%
    23:00 +12°C° 0 mm 1 mps 730 mmHg 92%

    Tomorrow, 19 October, Thursday

    Time Temperature Precipitation Wind Pressure Humidity
    00:00 +12°C° 0 mm 1 mps 730 mmHg 92%
    01:00 +11°C° 0 mm 1 mps 730 mmHg 92%
    02:00 +11°C° 0 mm 1 mps 730 mmHg 91%
    03:00 +11°C° 0 mm 1 mps 729 mmHg 91%
    04:00 +10°C° 0 mm 2 mps 729 mmHg 90%
    05:00 +10°C° 0 mm 2 mps 729 mmHg 89%
    06:00 +10°C° 0 mm 2 mps 729 mmHg 88%
    07:00 +13°C° 0 mm 2 mps 730 mmHg 82%
    08:00 +13°C° 0 mm 3 mps 730 mmHg 76%
    09:00 +16°C° 0 mm 3 mps 730 mmHg 71%
    10:00 +17°C° 0 mm 4 mps 730 mmHg 68%
    11:00 +19°C° 0 mm 4 mps 730 mmHg 65%
    12:00 +20°C° 0 mm 5 mps 730 mmHg 62%
    13:00 +20°C° 0 mm 4 mps 730 mmHg 64%
    14:00 +20°C° 0 mm 3 mps 729 mmHg 65%
    15:00 +20°C° 0 mm 3 mps 729 mmHg 67%
    16:00 +18°C° 0 mm 3 mps 729 mmHg 70%
    17:00 +16°C° 0 mm 3 mps 729 mmHg 73%
    18:00 +15°C° 0 mm 2 mps 729 mmHg 76%
    19:00 +14°C° 0 mm 2 mps 729 mmHg 76%
    20:00 +14°C° 0 mm 2 mps 729 mmHg 76%
    21:00 +13°C° 0 mm 2 mps 729 mmHg 76%
    22:00 +13°C° 0 mm 2 mps 729 mmHg 76%
    23:00 +13°C° 0 mm 2 mps 729 mmHg 75%

    Day after tomorrow, 20 October, Friday

    Time Temperature Precipitation Wind Pressure Humidity
    00:00 +12°C° 0 mm 2 mps 729 mmHg 75%
    01:00 +12°C° 0 mm 2 mps 729 mmHg 73%
    02:00 +13°C° 0 mm 2 mps 729 mmHg 72%
    03:00 +13°C° 0 mm 2 mps 730 mmHg 71%
    04:00 +13°C° 0 mm 2 mps 730 mmHg 71%
    05:00 +13°C° 0 mm 2 mps 730 mmHg 71%
    06:00 +13°C° 0 mm 2 mps 730 mmHg 71%
    07:00 +12°C° 0.4 mm 3 mps 730 mmHg 75%
    08:00 +12°C° 0.4 mm 3 mps 731 mmHg 80%
    09:00 +12°C° 0.4 mm 3 mps 731 mmHg 85%
    10:00 +13°C° 0.8 mm 4 mps 731 mmHg 87%
    11:00 +13°C° 0.8 mm 4 mps 731 mmHg 88%
    12:00 +13°C° 0.8 mm 4 mps 731 mmHg 90%
    13:00 +13°C° 0.6 mm 4 mps 731 mmHg 90%
    14:00 +13°C° 0.6 mm 4 mps 731 mmHg 90%
    15:00 +13°C° 0.6 mm 4 mps 731 mmHg 89%
    16:00 +13°C° 0.2 mm 3 mps 732 mmHg 91%
    17:00 +12°C° 0.2 mm 3 mps 732 mmHg 92%
    18:00 +12°C° 0.2 mm 2 mps 732 mmHg 93%
    19:00 +10°C° 0 mm 2 mps 732 mmHg 94%
    20:00 +10°C° 0 mm 2 mps 732 mmHg 94%
    21:00 +9°C° 0 mm 2 mps 733 mmHg 95%
    22:00 +9°C° 0 mm 2 mps 732 mmHg 95%
    23:00 +9°C° 0 mm 2 mps 732 mmHg 95%

    21 October, Saturday

    Time Temperature Precipitation Wind Pressure Humidity
    00:00 +9°C° 0 mm 2 mps 732 mmHg 96%
    01:00 +9°C° 0 mm 2 mps 732 mmHg 95%
    02:00 +9°C° 0 mm 3 mps 732 mmHg 95%
    03:00 +10°C° 0 mm 3 mps 731 mmHg 94%
    04:00 +10°C° 0 mm 3 mps 731 mmHg 95%
    05:00 +10°C° 0 mm 3 mps 731 mmHg 95%
    06:00 +10°C° 0 mm 4 mps 731 mmHg 95%
    07:00 +11°C° 0.3 mm 4 mps 731 mmHg 94%
    08:00 +10°C° 0.3 mm 5 mps 731 mmHg 93%
    09:00 +12°C° 0.3 mm 5 mps 731 mmHg 91%
    10:00 +12°C° 0.4 mm 5 mps 731 mmHg 91%
    11:00 +12°C° 0.4 mm 5 mps 731 mmHg 92%
    12:00 +13°C° 0.4 mm 5 mps 731 mmHg 92%
    13:00 +13°C° 0.4 mm 5 mps 732 mmHg 89%
    14:00 +13°C° 0.4 mm 5 mps 732 mmHg 85%
    15:00 +13°C° 0.4 mm 5 mps 732 mmHg 82%
    16:00 +12°C° 0.1 mm 5 mps 732 mmHg 84%
    17:00 +10°C° 0.1 mm 5 mps 732 mmHg 86%
    18:00 +9°C° 0.1 mm 5 mps 732 mmHg 87%
    19:00 +9°C° 0 mm 5 mps 732 mmHg 87%
    20:00 +8°C° 0 mm 5 mps 732 mmHg 86%
    21:00 +8°C° 0 mm 5 mps 732 mmHg 85%
    22:00 +7°C° 0 mm 5 mps 732 mmHg 86%
    23:00 +7°C° 0 mm 5 mps 733 mmHg 86%

    22 October, Sunday

    Time Temperature Precipitation Wind Pressure Humidity
    00:00 +7°C° 0 mm 5 mps 733 mmHg 86%
    01:00 +5°C° 0 mm 6 mps 732 mmHg 87%
    02:00 +5°C° 0 mm 6 mps 732 mmHg 88%
    03:00 +5°C° 0 mm 6 mps 732 mmHg 88%
    04:00 +5°C° 0.1 mm 6 mps 732 mmHg 88%
    05:00 +5°C° 0.1 mm 6 mps 732 mmHg 89%
    06:00 +5°C° 0.1 mm 6 mps 732 mmHg 89%
    07:00 +5°C° 0 mm 6 mps 733 mmHg 87%
    08:00 +7°C° 0 mm 6 mps 733 mmHg 84%
    09:00 +7°C° 0 mm 6 mps 733 mmHg 82%
    10:00 +8°C° 0.1 mm 6 mps 733 mmHg 79%
    11:00 +8°C° 0.1 mm 6 mps 733 mmHg 76%
    12:00 +9°C° 0.1 mm 6 mps 733 mmHg 73%
    13:00 +8°C° 0.1 mm 6 mps 733 mmHg 75%
    14:00 +8°C° 0.1 mm 6 mps 733 mmHg 77%
    15:00 +8°C° 0.1 mm 6 mps 734 mmHg 79%
    16:00 +8°C° 0.1 mm 5 mps 734 mmHg 81%
    17:00 +7°C° 0.1 mm 5 mps 734 mmHg 84%
    18:00 +6°C° 0.1 mm 4 mps 735 mmHg 87%
    19:00 +6°C° 0.1 mm 4 mps 735 mmHg 88%
    20:00 +6°C° 0.1 mm 4 mps 735 mmHg 89%
    21:00 +6°C° 0.1 mm 4 mps 735 mmHg 90%
    22:00 +7°C° 0.2 mm 5 mps 735 mmHg 92%
    23:00 +7°C° 0.2 mm 5 mps 735 mmHg 93%

    23 October, Monday

    Time Temperature Precipitation Wind Pressure Humidity
    00:00 +7°C° 0.2 mm 5 mps 735 mmHg 94%
    01:00 +7°C° 0.2 mm 5 mps 735 mmHg 94%
    02:00 +7°C° 0.2 mm 4 mps 735 mmHg 94%
    03:00 +7°C° 0.2 mm 4 mps 735 mmHg 94%
    04:00 +7°C° 0 mm 4 mps 735 mmHg 95%
    05:00 +7°C° 0 mm 4 mps 736 mmHg 95%
    06:00 +7°C° 0 mm 4 mps 736 mmHg 95%
    07:00 +7°C° 0.1 mm 4 mps 736 mmHg 94%
    08:00 +7°C° 0.1 mm 4 mps 736 mmHg 93%
    09:00 +8°C° 0.1 mm 4 mps 737 mmHg 93%
    10:00 +8°C° 0.2 mm 4 mps 737 mmHg 92%
    11:00 +10°C° 0.2 mm 4 mps 737 mmHg 92%
    12:00 +10°C° 0.2 mm 4 mps 737 mmHg 92%
    13:00 +10°C° 0.2 mm 4 mps 737 mmHg 92%
    14:00 +10°C° 0.2 mm 4 mps 737 mmHg 92%
    15:00 +10°C° 0.2 mm 3 mps 737 mmHg 92%
    16:00 +10°C° 0.2 mm 3 mps 737 mmHg 93%
    17:00 +10°C° 0.2 mm 3 mps 737 mmHg 94%
    18:00 +9°C° 0.2 mm 3 mps 737 mmHg 95%
    19:00 +9°C° 0.2 mm 3 mps 737 mmHg 96%
    20:00 +9°C° 0.2 mm 2 mps 737 mmHg 96%
    21:00 +9°C° 0.2 mm 2 mps 737 mmHg 96%
    22:00 +9°C° 0.2 mm 2 mps 737 mmHg 96%
    23:00 +9°C° 0.2 mm 2 mps 737 mmHg 96%
    Show more